Location: Newark
(7.0858°N, 171.3717°E)
Time: 09:36:52
(UTC+00:00)

S-56A Canister/Altair - Pass Details

Date: 03 December 2020
Orbit: 633 x 2499 km, 38.9° (Epoch: 27 January)

Event Time Altitude Azimuth Distance (km) Brightness Sun altitude
Rises 13:45:10 0° 320° (NW) 3,489 - -65.4°
Reaches altitude 10° 13:48:08 10° 328° (NNW) 2,342 - -64.8°
Maximum altitude 13:52:57 38° 37° (NE) 1,021 - -63.9°
Drops below altitude 10° 13:57:05 10° 106° (ESE) 2,004 - -63.1°
Sets 13:59:26 0° 114° (ESE) 2,917 - -62.6°
